[[{"header":{"parameterUnit":"m.s-1","parameterCategory":1,"la1":30.2992,"la2":30.254,"lo1":-89.0895,"lo2":-89.0443,"dy":0.0025,"dx":0.0025,"nx":19,"ny":19,"refTime":"2026-03-30T09:00:00:Z","depth":0,"parameterNumber":2,"parameterNumberName":"U-component_of_WINDS"},"data":[0,0,0,-4.8739,-4.8743,-4.8935,-4.8936,-4.918,-4.9183,0,0,0,0,0,0,0,0,0,0,0,-4.8681,-4.8683,-4.8738,-4.8743,-4.8935,-4.8936,-4.918,-4.9183,0,0,0,0,0,0,0,0,0,0,0,-4.868,-4.8682,-4.8685,-4.8744,-4.8935,-4.8936,-4.9179,-4.9035,0,0,0,0,0,0,0,0,0,0,-4.8848,-4.8795,-4.8682,-4.8685,-4.8745,-4.8935,-4.8936,-4.9028,-4.9044,-4.9093,0,-4.9137,0,-4.9164,-4.9199,-4.92,0,0,0,-4.8743,-4.8781,-4.8834,-4.8685,-4.8747,-4.8935,-4.8848,-4.9037,-4.9055,-4.9114,-4.9141,-4.915,-4.9168,-4.9201,-4.9202,-4.9489,-4.949,0,0,-4.8732,-4.8715,-4.8822,-4.8846,-4.8817,-4.8842,-4.8854,-4.9048,-4.9075,-4.9142,-4.9156,-4.9172,-4.9202,-4.9204,-4.9488,-4.9489,0,0,0,-4.8702,-4.8708,-4.8756,-4.8836,-4.8871,-4.8848,-4.8862,-4.9066,-4.9084,-4.9158,-4.9175,-4.9204,-4.9207,-4.9486,-4.9488,-4.9538,0,0,0,-4.8695,-4.869,-4.8751,-4.8742,-4.8867,-4.8971,-4.8876,-4.907,-4.9093,-4.9174,-4.9204,-4.9209,-4.9485,-4.9487,-4.9533,-4.9562,0,0,0,-4.8669,-4.8687,-4.8715,-4.8741,-4.8824,-4.8968,-4.8997,-4.9075,-4.9103,-4.92,-4.921,-4.9484,-4.9487,-4.9529,-4.9556,-4.9632,0,0,0,-4.8635,-4.8755,-4.8715,-4.8857,-4.8822,-4.8999,-4.8996,-4.9128,-4.9217,-4.9205,-4.9485,-4.9488,-4.9528,-4.9552,-4.9627,-4.969,-4.9716,0,0,-4.8777,-4.8772,-4.8857,-4.8827,-4.9006,-4.8971,-4.9158,-4.9255,-4.928,-4.9417,-4.9425,-4.9534,-4.9555,-4.9631,-4.9871,-4.9891,0,0,0,-4.8896,-4.8957,-4.9008,-4.9093,-4.9172,-4.9242,-4.9313,-4.935,-4.9468,-4.9348,-4.9585,-4.9598,-4.9642,-4.9673,-4.969,-4.9729,-4.9502,-4.9502,-4.9502,-4.907,-4.9097,-4.9239,-4.929,-4.9373,-4.9447,-4.9516,-4.9577,-4.9579,-4.9635,-4.9674,-4.9817,-4.9852,-4.9865,-4.9905,-4.9713,-4.9713,-4.9713,-4.9713,-4.9279,-4.9368,-4.9371,-4.9509,-4.9537,-4.9653,-4.973,-4.9727,-4.9838,-4.9789,-4.983,-4.977,-4.9887,-4.9923,-4.9717,-4.9717,-4.9716,-4.9716,-4.9716,-4.9393,-4.944,-4.9485,-4.9612,-4.9708,-4.9756,-4.9863,-4.9885,-4.9906,-4.9947,-4.9991,-4.999,-4.9989,-4.9967,-4.9968,-4.9969,-4.9969,-4.9969,-4.997,-4.9492,-4.9541,-4.9629,-4.9726,-4.9784,-4.9864,-4.9942,-5.0,-5.007,-5.0077,-5.0077,-5.0072,-4.9895,-4.9847,-4.9977,-4.9976,-4.9975,-4.9974,-4.9974,-4.9687,-4.9648,-4.9783,-4.9842,-4.9958,-5.0051,-5.008,-5.0197,-5.0248,-5.03,-5.0289,-5.0156,-5.015,-5.0137,-5.0098,-5.0284,-5.0284,-5.0284,-5.0284,-4.978,-4.9782,-4.9927,-5.0019,-5.0113,-5.0154,-5.0307,-5.037,-5.0428,-5.0462,-5.0439,-5.0391,-5.0376,-5.038,-5.0361,-5.0324,-5.0565,-5.0565,-5.0565,-4.9901,-4.9913,-5.0038,-5.0096,-5.019,-5.0269,-5.0412,-5.0518,-5.0577,-5.0577,-5.0488,-5.0476,-5.0398,-5.0372,-5.0364,-5.0335,-5.0268,0,0]},{"header":{"parameterUnit":"m.s-1","parameterCategory":1,"la1":30.2992,"la2":30.254,"lo1":-89.0895,"lo2":-89.0443,"dy":0.0025,"dx":0.0025,"nx":19,"ny":19,"refTime":"2026-03-30T09:00:00:Z","depth":0,"parameterNumber":3,"parameterNumberName":"V-component_of_WINDS"},"data":[0,0,0,2.6764,2.6765,2.683,2.683,2.69,2.6901,0,0,0,0,0,0,0,0,0,0,0,2.6738,2.6738,2.6764,2.6765,2.683,2.683,2.69,2.6901,0,0,0,0,0,0,0,0,0,0,0,2.6738,2.6738,2.6738,2.6766,2.683,2.683,2.69,2.6856,0,0,0,0,0,0,0,0,0,0,2.6795,2.6764,2.6738,2.6738,2.6766,2.683,2.683,2.6854,2.6858,2.6866,0,2.6871,0,2.6887,2.6905,2.6905,0,0,0,2.677,2.676,2.6784,2.6738,2.6766,2.683,2.6802,2.6856,2.6862,2.6872,2.6873,2.6875,2.6888,2.6905,2.6905,2.6938,2.6937,0,0,2.6767,2.6745,2.678,2.6787,2.6777,2.68,2.6804,2.686,2.6858,2.6873,2.6877,2.689,2.6905,2.6906,2.6938,2.6938,0,0,0,2.6753,2.6742,2.6766,2.6784,2.6797,2.6802,2.6806,2.6856,2.6865,2.6878,2.689,2.6906,2.6907,2.6938,2.6938,2.6915,0,0,0,2.6751,2.6735,2.6764,2.6751,2.6795,2.6827,2.6801,2.6861,2.6868,2.689,2.6906,2.6907,2.6938,2.6938,2.6915,2.6906,0,0,0,2.6736,2.6733,2.674,2.675,2.6777,2.6827,2.684,2.6863,2.6876,2.6905,2.6907,2.6938,2.6938,2.6916,2.6908,2.691,0,0,0,2.6713,2.6716,2.6739,2.6748,2.6776,2.6812,2.6839,2.6867,2.6889,2.6906,2.6938,2.6938,2.6916,2.6909,2.6911,2.6908,2.6905,0,0,2.6705,2.6715,2.6722,2.6744,2.6771,2.6804,2.6828,2.6867,2.6888,2.692,2.6921,2.6915,2.6908,2.691,2.6895,2.6892,0,0,0,2.6712,2.6717,2.6729,2.675,2.6782,2.681,2.6848,2.6864,2.6892,2.6901,2.6917,2.6913,2.6916,2.6915,2.6913,2.6917,2.6937,2.6937,2.6937,2.6668,2.6699,2.6713,2.6751,2.6772,2.6814,2.6834,2.6862,2.6883,2.6887,2.6896,2.6883,2.6882,2.6881,2.6884,2.6897,2.6897,2.6897,2.6897,2.666,2.6672,2.6705,2.6731,2.6762,2.6784,2.6826,2.6841,2.6866,2.6878,2.6881,2.6892,2.6877,2.6882,2.6895,2.6896,2.6896,2.6896,2.6896,2.6634,2.6646,2.6666,2.6704,2.6729,2.6768,2.6791,2.6819,2.6844,2.6848,2.6862,2.6862,2.6866,2.6853,2.6853,2.6853,2.6853,2.6853,2.6853,2.6599,2.6624,2.6641,2.6679,2.6698,2.6727,2.6772,2.6792,2.682,2.6839,2.6839,2.6861,2.687,2.6872,2.6852,2.6852,2.6852,2.6852,2.6852,2.6579,2.6589,2.6615,2.6635,2.6684,2.6708,2.6744,2.6783,2.6803,2.6814,2.6837,2.6839,2.685,2.6852,2.6853,2.683,2.683,2.683,2.683,2.6557,2.6567,2.6602,2.6633,2.6665,2.6702,2.6732,2.6768,2.6807,2.6821,2.6829,2.6834,2.6835,2.6845,2.6847,2.6849,2.6825,2.6825,2.6825,2.6547,2.6562,2.6581,2.6622,2.6663,2.6697,2.6726,2.676,2.6805,2.6825,2.6834,2.6834,2.6842,2.6843,2.6861,2.6864,2.6868,0,0]}]]